Hourly Weather Barninek

Today, 6 May, Thursday

Time Temperature Precipitation Wind Pressure Humidity
00:00 +2°C° 0.8 mm 12 mps 747 mmHg 95%
01:00 +2°C° 0 mm 12 mps 748 mmHg 95%
02:00 +2°C° 0.5 mm 12 mps 748 mmHg 91%
03:00 +2°C° 0.5 mm 12 mps 748 mmHg 86%
04:00 +2°C° 0.5 mm 12 mps 749 mmHg 81%
05:00 +2°C° 0 mm 12 mps 749 mmHg 81%
06:00 +2°C° 0 mm 12 mps 749 mmHg 81%
07:00 +2°C° 0 mm 11 mps 750 mmHg 82%
08:00 +3°C° 0.1 mm 11 mps 750 mmHg 77%
09:00 +3°C° 0.1 mm 11 mps 750 mmHg 73%
10:00 +4°C° 0.1 mm 11 mps 751 mmHg 69%
11:00 +6°C° 0.1 mm 10 mps 751 mmHg 61%
12:00 +7°C° 0.1 mm 10 mps 751 mmHg 54%
13:00 +8°C° 0.1 mm 10 mps 751 mmHg 46%
14:00 +8°C° 0 mm 9 mps 751 mmHg 50%
15:00 +8°C° 0 mm 9 mps 751 mmHg 53%
16:00 +7°C° 0 mm 8 mps 751 mmHg 56%
17:00 +6°C° 0.1 mm 7 mps 752 mmHg 63%
18:00 +6°C° 0.1 mm 5 mps 752 mmHg 69%
19:00 +5°C° 0.1 mm 4 mps 752 mmHg 76%
20:00 +5°C° 0 mm 4 mps 752 mmHg 79%
21:00 +4°C° 0 mm 4 mps 752 mmHg 82%
22:00 +3°C° 0 mm 4 mps 752 mmHg 86%
23:00 +3°C° 0 mm 4 mps 752 mmHg 87%

Tomorrow, 7 May, Friday

Time Temperature Precipitation Wind Pressure Humidity
00:00 +3°C° 0 mm 4 mps 752 mmHg 88%
01:00 +2°C° 0 mm 3 mps 752 mmHg 89%
02:00 +2°C° 0 mm 3 mps 752 mmHg 89%
03:00 +2°C° 0 mm 3 mps 752 mmHg 89%
04:00 +3°C° 0 mm 2 mps 752 mmHg 89%
05:00 +3°C° 0 mm 3 mps 752 mmHg 85%
06:00 +4°C° 0 mm 3 mps 752 mmHg 82%
07:00 +5°C° 0 mm 3 mps 752 mmHg 78%
08:00 +7°C° 0 mm 3 mps 753 mmHg 72%
09:00 +7°C° 0 mm 4 mps 753 mmHg 67%
10:00 +7°C° 0 mm 4 mps 753 mmHg 61%
11:00 +8°C° 0.1 mm 4 mps 753 mmHg 62%
12:00 +8°C° 0.1 mm 5 mps 754 mmHg 63%
13:00 +8°C° 0.1 mm 5 mps 754 mmHg 64%
14:00 +8°C° 0.1 mm 5 mps 754 mmHg 65%
15:00 +7°C° 0.1 mm 6 mps 755 mmHg 67%
16:00 +7°C° 0.1 mm 6 mps 755 mmHg 68%
17:00 +6°C° 0 mm 5 mps 756 mmHg 73%
18:00 +5°C° 0 mm 5 mps 756 mmHg 79%
19:00 +5°C° 0 mm 4 mps 756 mmHg 84%
20:00 +4°C° 0 mm 4 mps 757 mmHg 87%
21:00 +3°C° 0 mm 4 mps 757 mmHg 90%
22:00 +3°C° 0 mm 4 mps 758 mmHg 94%
23:00 +3°C° 0 mm 4 mps 758 mmHg 94%

Day after tomorrow, 8 May, Saturday

Time Temperature Precipitation Wind Pressure Humidity
00:00 +1°C° 0 mm 4 mps 758 mmHg 94%
01:00 +1°C° 0 mm 4 mps 759 mmHg 94%
02:00 +1°C° 0.1 mm 5 mps 759 mmHg 94%
03:00 +1°C° 0.1 mm 5 mps 759 mmHg 95%
04:00 +1°C° 0.1 mm 6 mps 759 mmHg 95%
05:00 +2°C° 0.1 mm 6 mps 760 mmHg 93%
06:00 +3°C° 0.1 mm 7 mps 760 mmHg 90%
07:00 +3°C° 0.1 mm 7 mps 761 mmHg 87%
08:00 +4°C° 0 mm 7 mps 761 mmHg 82%
09:00 +5°C° 0 mm 7 mps 761 mmHg 78%
10:00 +7°C° 0 mm 6 mps 761 mmHg 73%
11:00 +7°C° 0.1 mm 6 mps 762 mmHg 70%
12:00 +8°C° 0.1 mm 6 mps 762 mmHg 66%
13:00 +8°C° 0.1 mm 6 mps 762 mmHg 63%
14:00 +8°C° 0 mm 6 mps 762 mmHg 61%
15:00 +8°C° 0 mm 5 mps 762 mmHg 58%
16:00 +9°C° 0 mm 5 mps 763 mmHg 56%
17:00 +9°C° 0 mm 3 mps 762 mmHg 62%
18:00 +8°C° 0 mm 2 mps 762 mmHg 68%
19:00 +8°C° 0 mm 1 mps 762 mmHg 74%
20:00 +6°C° 0 mm 2 mps 762 mmHg 74%
21:00 +4°C° 0 mm 3 mps 762 mmHg 75%
22:00 +4°C° 0 mm 3 mps 762 mmHg 75%
23:00 +4°C° 0 mm 4 mps 762 mmHg 73%

9 May, Sunday

Time Temperature Precipitation Wind Pressure Humidity
00:00 +4°C° 0 mm 4 mps 762 mmHg 71%
01:00 +5°C° 0 mm 5 mps 761 mmHg 69%
02:00 +5°C° 0 mm 5 mps 761 mmHg 67%
03:00 +5°C° 0 mm 6 mps 760 mmHg 64%
04:00 +5°C° 0 mm 7 mps 760 mmHg 61%
05:00 +7°C° 0 mm 6 mps 759 mmHg 62%
06:00 +7°C° 0 mm 6 mps 759 mmHg 62%
07:00 +8°C° 0 mm 6 mps 759 mmHg 63%
08:00 +10°C° 0 mm 7 mps 759 mmHg 60%
09:00 +12°C° 0 mm 7 mps 758 mmHg 57%
10:00 +15°C° 0 mm 7 mps 758 mmHg 54%
11:00 +17°C° 0 mm 7 mps 758 mmHg 52%
12:00 +18°C° 0 mm 7 mps 758 mmHg 51%
13:00 +20°C° 0 mm 6 mps 758 mmHg 49%
14:00 +20°C° 0 mm 6 mps 758 mmHg 51%
15:00 +21°C° 0 mm 6 mps 757 mmHg 53%
16:00 +21°C° 0 mm 5 mps 757 mmHg 55%
17:00 +20°C° 0 mm 6 mps 757 mmHg 60%
18:00 +17°C° 0 mm 6 mps 757 mmHg 65%
19:00 +16°C° 0 mm 6 mps 757 mmHg 70%
20:00 +15°C° 0 mm 6 mps 757 mmHg 73%
21:00 +15°C° 0 mm 6 mps 757 mmHg 76%
22:00 +14°C° 0 mm 6 mps 758 mmHg 79%
23:00 +13°C° 0 mm 6 mps 758 mmHg 79%

10 May, Monday

Time Temperature Precipitation Wind Pressure Humidity
00:00 +13°C° 0 mm 6 mps 758 mmHg 78%
01:00 +11°C° 0 mm 6 mps 758 mmHg 78%
02:00 +11°C° 0 mm 6 mps 758 mmHg 77%
03:00 +11°C° 0 mm 6 mps 758 mmHg 75%
04:00 +10°C° 0 mm 6 mps 757 mmHg 74%
05:00 +11°C° 0 mm 6 mps 758 mmHg 71%
06:00 +13°C° 0 mm 6 mps 758 mmHg 68%
07:00 +14°C° 0 mm 6 mps 758 mmHg 65%
08:00 +15°C° 0 mm 6 mps 758 mmHg 60%
09:00 +17°C° 0 mm 6 mps 758 mmHg 56%
10:00 +20°C° 0 mm 6 mps 758 mmHg 51%
11:00 +20°C° 0 mm 6 mps 757 mmHg 50%
12:00 +21°C° 0 mm 6 mps 757 mmHg 49%
13:00 +22°C° 0 mm 5 mps 757 mmHg 48%
14:00 +22°C° 0 mm 5 mps 757 mmHg 51%
15:00 +22°C° 0 mm 5 mps 757 mmHg 53%
16:00 +22°C° 0 mm 5 mps 757 mmHg 55%
17:00 +21°C° 0 mm 4 mps 757 mmHg 61%
18:00 +20°C° 0 mm 3 mps 757 mmHg 67%
19:00 +18°C° 0 mm 2 mps 757 mmHg 73%
20:00 +17°C° 0 mm 2 mps 757 mmHg 78%
21:00 +16°C° 0 mm 3 mps 757 mmHg 83%
22:00 +14°C° 0 mm 3 mps 758 mmHg 88%
23:00 +14°C° 0 mm 3 mps 757 mmHg 90%

11 May, Tuesday

Time Temperature Precipitation Wind Pressure Humidity
00:00 +13°C° 0 mm 3 mps 757 mmHg 91%
01:00 +13°C° 0 mm 3 mps 757 mmHg 92%
02:00 +13°C° 0 mm 3 mps 757 mmHg 92%
03:00 +13°C° 0 mm 4 mps 757 mmHg 93%
04:00 +13°C° 0 mm 4 mps 756 mmHg 93%
05:00 +14°C° 0 mm 4 mps 756 mmHg 87%
06:00 +17°C° 0 mm 4 mps 756 mmHg 81%
07:00 +17°C° 0 mm 5 mps 756 mmHg 74%
08:00 +19°C° 0 mm 5 mps 756 mmHg 69%
09:00 +21°C° 0 mm 5 mps 756 mmHg 63%
10:00 +22°C° 0 mm 5 mps 756 mmHg 57%
11:00 +23°C° 0 mm 5 mps 755 mmHg 56%
12:00 +25°C° 0 mm 4 mps 755 mmHg 55%
13:00 +25°C° 0 mm 4 mps 755 mmHg 55%
14:00 +25°C° 0 mm 4 mps 755 mmHg 57%
15:00 +23°C° 0 mm 4 mps 755 mmHg 60%
16:00 +23°C° 0 mm 4 mps 755 mmHg 63%
17:00 +22°C° 0 mm 4 mps 755 mmHg 68%
18:00 +20°C° 0 mm 4 mps 755 mmHg 73%
19:00 +19°C° 0 mm 4 mps 755 mmHg 78%
20:00 +18°C° 0 mm 3 mps 756 mmHg 82%
21:00 +16°C° 0 mm 2 mps 756 mmHg 86%
22:00 +15°C° 0 mm 2 mps 757 mmHg 90%
23:00 +15°C° 0 mm 2 mps 757 mmHg 90%
Show more